Other Surface Observations
Issued by NWS Tucson, AZ

Home | Current Version | Previous Version | Text Only | Print | Product List | Glossary On
Versions: 1 2 3 4 5 6 7 8 9 10 11 12 13 14 15 16 17 18 19 20 21 22 23 24 25 26 27 28 29 30 31 32 33 34 35 36 37 38 39 40 41 42 43 44 45 46 47 48 49 50
951
SXUS55 KTWC 240515
OSOTWC

WEATHER ROUNDUP FOR SOUTHEAST ARIZONA
NATIONAL WEATHER SERVICE TUCSON AZ
1015 PM MST SAT JUL 23 2016

AZZ504>506-514-240615-
LOCATION       SKY/WX    TMP DP  RH WIND       PRES   REMARKS
TUCSON         CLEAR     94  58  29 W14G21    29.92R
DAVIS-MONTHAN  CLEAR     94  56  27 W12       29.90R
CHILDRENS PARK N/A      N/A N/A  18 NW19              PIMA CO DEQ
ALVERNON/22ND  N/A       96 N/A N/A NW5               PIMA CO DEQ
CHERRY/GLENN   N/A      N/A N/A N/A N/A               PIMA CO DEQ
TANGERINE      N/A       96 N/A N/A N4                PIMA CO DEQ
CONTL RANCH    N/A       99  51  20 N4                PIMA CO DEQ
GRANT/1ST      N/A       98  49  19 NW6               PIMA CO DEQ
CRAYCROFT/22ND N/A       98  49  19 N/A               PIMA CO DEQ
GOLFLINKS/KOLB N/A      N/A N/A N/A N/A               PIMA CO DEQ
AJO/12TH       N/A       99  49  19 NW6               PIMA CO DEQ
SAGUARO EAST   N/A       35   0  21 NW7               PIMA CO DEQ
FAIRGROUNDS    N/A       93 N/A N/A SE41              PIMA CO DEQ
SAGUARO        N/A       95  51  23 N3G10             *SABINO CYN
SAN CARLOS     N/A       93  51  24 NE10G17           *SAN CARLOS
GREEN VALLEY   N/A       95  50  22 NW4               PIMA CO DEQ
HORSE CAMP CYN N/A       90  51  27 W6G13             *ARAVAIPA CYN
RINCON MTNS    NOT AVBL
$$

AZZ509>511-240615-
LOCATION       SKY/WX    TMP DP  RH WIND       PRES   REMARKS
SAFFORD        MOCLDY    88  52  29 NW5       29.93R
STRAY HORSE    N/A       71  43  37 N8G24             *
TRAIL CABIN    N/A       71  50  47 W5G10             *N OF GRANVILLE
BLACK HILLS    NOT AVBL
DRY LAKE       N/A       67  48  50 NE4G10            *NATANES MTNS
NOON CREEK     N/A       81  50  34 W3                *PINALENO MTNS
COLUMBINE      N/A       59  48  68 CALM              *PINALENO MTNS
GUTHRIE        N/A       78  42  28 N/A               *SW OF GUTHRIE
$$

AZZ502-503-513-240615-
LOCATION       SKY/WX    TMP DP  RH WIND       PRES   REMARKS
NOGALES        PTCLDY    82  60  47 VRB5      30.04R
SELLS          N/A       90  57  33 N6G12             *
SASABE         N/A       87  58  38 SW5G17            *ALTAR VLY
HOPKINS        N/A       74  48  40 NW10G18           *SANTA RITA MTNS
CARR CYN       N/A       77  53  43 SW2               *W OF HEREFORD
$$

AZZ507-508-512-240615-
LOCATION       SKY/WX    TMP DP  RH WIND       PRES   REMARKS
SIERRA VISTA   PTCLDY    84  51  31 W12       30.08S
DOUGLAS        PTCLDY    83  56  39 NW13      30.01R
EMPIRE MTNS    NOT AVBL
MULESHOE RANCH N/A       88  50  27 NW7G13            *PRESERVE
HEADQUARTERS   NOT AVBL
$$

.............................NOTES.............................
THIS IS AN AUTOMATED COLLECTIVE WITH MINIMAL QUALITY CONTROL.
PIMA CO DEQ SITES HAVE NONSTANDARD WIND SENSOR HEIGHTS.
PIMA CO DEQ SITES DO NOT REPORT WIND GUSTS.
* INDICATES WIND SENSORS LOCATED AT 20 FEET INSTEAD OF 33 FEET.
..............................KEY..............................
SKY/WX - SKY CONDITION/WEATHER
TMP    - TEMPERATURE IN FAHRENHEIT
DP     - DEWPOINT IN FAHRENHEIT
RH     - RELATIVE HUMIDITY IN PERCENT
WIND   - DIRECTION AND SPEED IN MILES PER HOUR (MPH)
VRB    - VARIABLE WIND DIRECTION
PRES   - MEAN SEA LEVEL PRESSURE IN INCHES OF MERCURY
         F - FALLING PRESSURE   R - RISING PRESSURE
         S - STEADY PRESSURE
VSB    - VISIBILITY IN MILES
HX     - HEAT INDEX IN FAHRENHEIT
WCI    - WIND CHILL INDEX IN FAHRENHEIT
N/A    - NOT AVAILABLE
AFB    - AIR FORCE BASE
         DAVIS-MONTHAN IS DAVIS-MONTHAN AIR FORCE BASE
CYN    - CANYON
MTNS   - MOUNTAINS
NCA    - NATIONAL CONSERVATION AREA
NR     - NEAR
VLY    - VALLEY
CONTL  - CONTINENTAL
PIMA CO DEQ - PIMA COUNTY DEPT OF ENVIRONMENTAL QUALITY



USA.gov is the U.S. government's official web portal to all federal, state and local government web resources and services.